Vorticity
11 10 10 10 11 12 11 10 10 9 9 10 10 10 10 9 8 7 6 5 4 4 3 3 3 3 4 5 5 4 3 2 2 3 4 2 3 9 15 21 21 15 9 5 6 8 8 6 6 6 7 8 9 11 9 8 8 9 11 12 13 11 9 10 9 3 -6 1 12 8 5 6 7 9 6 7 7 5 7 6 4 4 4 3 3 3 2 3
12 12 11 10 10 11 12 12 11 10 9 9 10 10 10 10 9 8 7 6 5 5 4 3 3 2 3 4 5 6 5 3 3 3 2 2 3 4 7 15 22 21 16 9 5 5 8 8 7 6 7 7 7 9 9 8 7 9 11 11 12 11 7 2 2 3 -6 3 17 8 5 5 5 8 8 8 6 5 5 4 5 5 5 5 4 3 3 4
10 11 12 11 11 10 10 11 12 12 10 9 10 10 10 10 11 10 8 8 6 5 5 5 4 3 3 3 4 6 6 6 4 2 2 3 4 3 4 8 14 20 20 15 10 5 4 7 8 7 7 7 7 7 9 9 8 8 10 14 14 9 5 3 4 7 2 6 13 8 5 5 5 8 8 7 5 5 3 3 5 5 5 4 5 5 3 4
9 9 10 11 12 11 10 10 11 12 12 11 10 10 10 9 10 11 11 9 7 6 6 6 5 4 3 3 4 3 5 8 4 2 5 4 3 4 5 5 7 13 18 18 15 10 6 5 7 7 6 7 7 7 8 9 9 8 9 13 10 5 7 8 8 9 7 7 7 5 6 6 5 5 6 5 5 7 5 4 3 3 7 5 6 8 3 3
9 9 9 9 10 11 11 11 10 10 11 12 11 10 10 10 10 10 12 12 9 8 7 7 7 6 5 4 4 3 6 7 4 6 5 1 2 4 4 5 4 6 12 17 17 13 9 5 5 6 6 7 7 8 8 8 8 9 11 10 5 9 14 10 8 8 9 8 3 3 5 6 6 5 6 1 1 7 4 6 5 3 9 7 4 8 7 5
9 9 9 8 8 9 10 11 12 11 10 10 11 11 10 10 10 9 11 12 12 10 7 8 7 7 6 5 5 4 5 3 3 9 7 3 4 2 2 5 4 3 6 13 17 15 11 7 5 5 6 7 7 7 8 8 8 7 10 11 10 14 14 11 10 9 9 8 4 4 3 4 5 5 6 -1 -3 3 2 8 10 4 6 8 4 7 8 5
9 9 9 9 8 7 8 9 11 12 12 11 10 10 11 11 10 10 9 10 12 11 9 8 7 7 7 7 7 5 5 4 3 6 8 7 6 4 3 3 4 5 4 7 14 15 13 10 7 4 5 7 6 6 7 8 8 7 8 10 12 11 9 10 11 9 8 6 4 4 2 2 4 5 8 2 -2 3 5 7 5 3 6 4 1 5 7 4
11 10 10 10 9 8 7 7 8 9 12 12 11 10 9 11 11 11 9 9 10 10 10 9 8 7 7 8 7 6 6 5 3 4 5 5 6 6 5 3 3 6 5 5 9 13 14 11 9 5 3 5 6 6 6 8 7 8 9 11 13 11 10 10 10 10 7 5 5 4 2 4 5 5 7 4 -0 2 6 6 -0 1 4 -0 -3 2 6 4
11 11 10 10 10 10 9 7 6 7 9 11 12 12 10 9 10 11 11 10 9 9 10 10 10 7 7 8 7 8 6 5 6 6 5 4 5 6 6 6 4 4 5 5 5 9 14 12 9 7 4 4 5 5 6 7 7 7 8 10 12 12 12 12 10 9 6 6 5 3 4 6 5 4 7 5 2 -1 -1 1 0 1 1 2 4 4 4 4
10 11 11 11 11 11 11 10 8 6 6 7 10 11 13 11 10 10 10 11 10 9 9 9 10 8 8 8 7 8 6 8 8 5 5 5 6 6 6 7 4 4 4 4 5 7 11 13 11 8 6 5 4 4 6 6 5 7 8 8 10 11 12 12 10 9 6 6 4 3 7 6 5 6 9 8 2 1 2 -1 -1 5 6 4 5 5 5 4
9 10 11 11 12 12 11 11 11 8 6 6 7 9 11 12 12 11 9 10 10 10 10 9 10 9 8 7 7 7 7 10 9 5 6 5 5 5 7 8 6 5 2 3 5 5 7 9 10 9 7 6 4 4 5 5 5 8 9 8 11 11 12 12 12 10 5 6 4 3 8 7 6 5 5 9 5 1 3 3 2 7 8 4 4 5 8 7
9 10 10 11 12 12 12 12 11 11 9 6 5 7 8 9 12 13 12 10 9 10 11 11 10 8 9 8 7 8 8 9 8 7 7 5 5 5 6 8 8 6 3 3 2 4 6 6 11 12 9 7 4 3 4 6 6 7 8 8 11 11 12 12 13 12 6 9 6 2 8 7 8 8 4 5 6 5 4 3 5 7 5 3 3 3 8 12
9 9 10 11 11 12 14 14 12 11 12 10 7 6 7 7 8 11 13 13 11 10 9 11 11 10 9 9 8 8 7 7 8 7 7 6 6 5 6 6 8 8 5 4 1 3 3 5 12 12 10 9 7 5 4 5 7 7 6 8 10 10 12 10 12 12 6 11 7 1 10 10 8 10 8 4 1 5 9 7 6 7 5 0 0 2 8 12
10 9 9 9 10 12 14 16 16 13 11 12 11 8 6 6 7 8 10 12 12 12 11 10 10 11 10 8 8 8 6 7 7 7 7 8 6 5 6 5 7 8 8 6 3 2 2 6 10 8 11 12 8 7 4 3 7 8 6 7 7 7 12 9 11 11 7 13 5 -0 16 24 22 11 2 5 1 1 9 9 4 4 5 2 3 4 6 7
12 11 10 9 9 11 13 16 18 17 13 11 12 12 9 6 7 7 7 9 11 12 13 12 10 10 10 8 9 9 7 8 8 7 5 6 7 5 5 5 6 6 8 7 3 4 6 8 7 7 13 12 7 7 6 5 7 8 7 8 6 7 14 10 10 9 9 15 4 3 14 15 20 15 4 6 1 -1 6 9 5 4 2 2 6 5 3 6
13 12 11 10 9 8 12 15 18 20 16 12 11 12 12 9 7 6 7 7 9 10 11 12 12 11 10 7 10 10 9 8 8 7 5 5 7 6 5 5 5 6 7 7 7 9 8 6 5 5 10 11 10 9 6 6 6 6 7 9 6 10 21 17 10 6 8 12 4 9 14 -1 2 8 10 12 6 0 2 7 8 8 5 2 8 8 3 6
14 13 11 11 10 7 8 11 16 21 20 14 11 12 13 12 10 7 7 7 7 8 9 11 12 12 12 10 11 12 11 10 9 8 7 7 7 6 7 8 7 7 8 8 8 9 6 5 6 6 7 7 11 11 6 4 4 5 7 9 8 9 15 15 10 4 7 10 4 11 11 2 7 8 8 11 9 5 0 2 0 -2 1 1 5 8 4 3
14 13 11 11 11 8 6 6 11 17 23 20 13 11 11 13 14 10 8 8 7 7 8 9 9 11 11 10 12 11 10 10 10 9 8 8 8 8 9 9 8 7 7 8 9 8 6 5 4 4 5 4 8 11 8 6 5 6 6 7 10 5 -0 8 12 5 6 7 8 15 3 -8 4 8 9 15 19 19 13 13 9 2 3 3 4 6 7 6
13 13 13 11 12 11 5 4 6 9 19 24 20 13 10 12 15 14 11 9 8 6 7 8 6 9 11 9 11 10 10 11 12 12 10 10 9 10 10 7 7 8 7 8 9 8 6 4 1 0 2 4 9 10 7 8 10 9 8 7 11 6 -2 5 11 6 8 7 8 18 4 -11 0 1 -3 9 23 23 17 18 17 13 12 10 10 7 5 6
13 12 13 11 11 13 8 4 4 4 9 19 25 18 11 12 13 16 15 10 8 5 8 10 4 7 11 8 10 11 9 10 11 11 10 9 10 10 10 8 8 7 7 8 8 8 7 3 2 4 7 8 11 10 6 5 7 8 9 6 6 9 9 9 11 11 8 4 9 19 9 -1 10 9 -5 -8 -1 -1 -6 -5 -1 2 6 8 10 6 4 5
13 12 12 11 11 14 11 5 3 5 4 9 22 22 15 11 11 14 15 14 11 5 9 12 2 5 13 8 7 10 8 9 9 9 9 8 9 9 9 9 9 7 8 9 7 6 6 3 5 9 9 9 10 10 8 3 0 3 4 5 6 11 12 3 1 4 3 13 27 22 8 5 9 12 11 -1 -8 -2 -2 -5 -1 2 3 5 4 1 1 4
12 11 11 11 11 13 14 9 4 5 4 4 13 22 19 12 12 15 13 16 16 10 11 12 3 4 12 7 5 9 9 9 9 8 9 8 7 8 9 9 8 9 9 8 7 6 5 5 9 9 7 7 8 10 11 6 4 4 4 8 10 10 9 4 3 2 4 16 16 -5 -11 3 8 8 16 10 0 8 12 5 6 8 7 8 6 3 4 6
11 10 10 11 11 13 15 11 6 4 5 6 7 18 23 13 12 16 12 14 17 13 12 12 6 6 10 6 4 10 9 8 9 9 9 8 8 8 7 9 8 9 9 6 7 8 8 10 10 8 6 5 7 10 10 7 8 7 7 9 11 14 14 13 12 5 5 5 -7 -7 1 5 9 12 13 11 6 8 10 7 6 10 10 9 8 5 5 7
10 10 9 10 10 11 13 12 9 4 4 10 7 12 25 18 9 14 14 14 17 16 14 13 9 6 8 7 5 7 8 7 7 8 8 7 9 8 7 9 9 8 8 7 8 8 10 11 11 8 6 5 7 10 7 7 11 8 7 5 8 21 17 6 7 4 7 4 -9 1 11 1 2 13 13 9 10 7 4 8 8 8 9 6 6 7 5 6
9 9 9 9 10 10 12 11 9 6 6 14 11 9 24 23 9 11 14 13 17 18 16 15 13 9 8 9 7 5 8 9 6 7 8 7 7 8 8 8 8 8 8 8 8 9 10 8 8 8 7 7 6 7 7 8 13 10 8 2 -2 10 13 9 12 6 3 6 5 2 1 4 0 -3 4 12 17 13 4 7 11 9 8 8 6 8 8 6
9 9 9 10 10 9 11 10 9 9 9 15 14 10 24 25 11 9 13 13 15 17 17 15 14 13 11 12 8 4 7 8 7 8 6 6 7 6 7 7 8 9 8 8 8 8 9 6 7 7 6 7 6 8 10 7 9 10 11 9 -3 -2 11 22 23 13 6 8 17 11 2 14 14 -2 -2 8 20 24 14 7 9 9 6 6 8 7 8 6
11 10 10 11 11 11 11 11 12 12 12 18 16 12 22 23 11 9 12 12 12 15 18 16 13 13 15 15 10 6 9 7 7 9 6 7 8 5 7 6 7 9 5 6 7 7 9 6 6 6 5 7 6 8 10 9 8 10 19 16 -0 -7 -3 6 11 11 15 14 16 16 6 9 15 11 4 0 8 17 19 13 6 9 7 3 8 8 6 6
14 12 13 13 13 14 13 12 14 13 15 19 15 12 19 18 12 12 13 14 17 19 18 16 15 12 11 14 13 9 10 10 10 9 5 7 8 7 7 5 7 9 6 6 7 7 9 7 7 7 6 6 7 9 9 12 6 3 24 23 -0 -3 -8 -7 7 11 13 17 16 17 13 5 3 11 10 -0 -1 1 10 18 9 5 6 3 7 8 6 6
19 16 16 16 15 15 15 15 15 14 18 19 12 12 17 16 14 14 13 12 17 23 21 16 15 14 14 15 14 11 9 10 11 10 7 8 8 7 7 8 8 6 5 8 8 8 7 7 7 7 9 6 6 11 8 13 9 -4 22 38 14 5 -0 -4 13 17 11 10 10 12 15 12 7 9 9 -0 1 1 3 14 14 8 6 5 8 8 5 5
22 19 18 17 15 15 16 16 16 17 19 16 11 14 16 16 16 15 14 11 12 20 23 19 16 13 15 15 12 12 12 9 8 8 9 9 9 9 8 9 9 7 8 7 7 9 6 6 8 5 9 9 9 14 7 12 15 -8 6 41 29 10 6 5 8 15 18 11 10 12 5 6 10 9 11 12 14 12 8 13 17 12 8 8 9 9 5 4
21 21 19 17 16 16 17 17 17 17 17 13 11 16 18 18 18 16 16 13 10 16 17 15 20 20 14 15 15 12 12 12 11 8 8 9 9 8 7 4 4 6 7 4 6 9 5 4 7 6 7 8 9 13 10 14 12 -17 -14 24 31 14 7 5 -7 -9 1 -0 6 20 10 3 10 7 3 9 10 5 4 9 16 16 12 11 10 7 6 5
22 22 18 17 18 18 18 18 19 18 15 12 12 16 18 18 18 15 16 14 7 15 20 11 16 26 19 15 16 15 13 15 15 10 6 10 10 7 9 6 3 4 2 5 9 7 10 14 9 6 8 7 8 10 15 17 0 -20 -16 5 20 19 9 5 -0 -8 -5 -10 -4 26 33 12 6 7 1 1 4 7 10 9 12 15 11 9 9 5 5 5
22 20 18 19 19 17 17 17 18 19 15 13 14 18 17 15 19 19 20 21 7 8 27 24 16 25 26 18 15 15 17 17 16 13 8 10 11 8 12 12 8 7 3 10 16 1 3 22 17 6 4 8 10 7 17 25 1 -14 -9 -10 1 13 6 5 6 6 9 -3 -10 17 33 13 -0 6 6 1 -0 7 18 16 11 14 11 7 6 6 6 5
21 20 19 19 18 18 18 14 17 18 16 17 16 20 19 13 20 23 19 27 18 1 16 31 27 25 26 23 19 15 15 17 14 14 13 10 11 9 9 9 7 10 8 14 27 10 -12 4 17 10 4 9 10 -5 4 28 14 -0 7 4 5 9 8 15 9 4 16 6 -10 4 14 8 6 8 12 12 3 -1 8 12 10 11 10 8 5 5 6 3
21 20 19 20 20 20 18 16 19 16 16 19 15 18 23 16 20 19 9 16 22 7 4 18 25 27 25 22 26 23 17 19 18 17 18 11 9 11 10 10 7 7 9 7 23 24 -3 -3 15 16 9 9 12 -2 -4 20 16 4 12 7 3 0 4 29 25 1 13 19 3 -4 -7 -4 7 10 17 23 12 3 4 6 9 9 6 8 7 5 4 1
21 21 21 22 21 21 19 18 19 16 16 18 16 19 18 12 13 13 9 10 17 15 5 8 19 28 26 14 20 26 12 12 17 16 26 20 10 13 11 14 12 2 6 10 16 20 6 7 20 22 14 6 13 8 -2 17 20 12 15 3 2 8 -5 13 36 12 -0 12 18 13 2 3 8 2 4 17 15 6 4 4 7 8 6 6 5 3 3 1
20 19 22 23 21 22 19 17 17 17 17 12 14 19 8 5 11 11 14 12 13 17 4 6 23 27 25 13 18 30 10 3 13 11 23 25 12 15 10 10 15 4 3 14 22 18 4 10 25 28 21 10 14 11 -4 10 20 16 23 6 -4 13 -3 -13 24 39 13 -9 -1 15 16 12 12 3 -6 6 19 12 4 8 10 7 5 5 3 1 2 2
19 18 22 21 21 21 14 16 18 14 20 15 12 17 3 6 17 7 10 13 12 17 3 5 25 22 21 14 15 35 18 -2 9 9 17 22 13 21 19 9 13 10 4 6 16 22 6 2 18 30 29 16 14 12 -9 -7 4 5 25 26 -3 -3 7 -7 -6 22 29 1 -11 5 18 15 13 17 10 3 13 15 7 7 10 8 6 2 0 1 1 2
9 10 12 12 22 26 15 18 17 13 28 21 11 13 -10 -4 21 5 5 19 14 15 5 5 18 12 16 14 8 36 33 5 7 9 12 18 12 20 23 16 17 15 10 4 3 13 7 -5 3 21 33 25 14 13 -2 -6 5 -3 1 32 24 -12 -4 13 -4 -1 21 18 4 -1 5 12 6 11 23 15 8 12 12 9 6 7 8 5 2 2 1 1
2 5 10 13 24 29 18 20 22 20 28 13 7 8 -27 -16 29 13 5 25 20 14 6 4 14 9 13 13 1 24 35 15 9 10 11 16 16 20 15 10 18 18 15 9 4 11 12 3 1 9 27 29 14 13 10 4 13 0 -25 0 22 -11 -16 13 10 4 14 16 19 9 -1 8 6 -0 13 22 15 7 8 14 9 3 3 4 2 -1 -1 1
1 6 18 17 17 22 19 24 25 18 15 1 -4 -2 -22 -7 31 19 14 31 22 10 -1 -2 10 8 9 12 2 17 32 17 3 8 17 16 13 18 12 3 9 16 16 8 4 12 14 6 -2 -3 15 28 18 12 16 12 16 14 -5 -0 18 3 -7 6 5 5 13 13 23 27 14 9 9 4 4 15 22 12 3 9 11 7 4 1 -0 -2 -1 1
1 9 18 12 9 16 21 25 20 9 5 -7 -20 -8 7 15 19 18 26 28 16 4 -2 5 14 6 5 9 4 15 30 20 -1 3 19 19 13 15 14 9 10 16 20 13 7 12 15 12 -1 -10 9 34 31 19 16 10 11 20 18 14 26 22 -0 -7 -3 -4 -5 -2 4 15 22 15 8 9 4 4 15 16 9 8 8 11 12 7 5 4 2 4
1 13 13 10 14 16 21 28 20 6 -2 -6 -6 12 31 20 8 20 22 13 12 3 -4 11 18 7 1 -0 1 8 18 20 6 -1 11 17 17 18 11 8 8 9 13 11 11 11 7 12 7 -8 5 26 26 23 19 3 -0 20 22 -3 -3 26 24 4 4 4 -4 -2 -2 -1 16 25 16 12 7 2 10 14 13 15 11 10 12 11 10 8 6 8
7 21 12 11 16 11 18 27 17 2 -4 3 16 22 20 10 10 22 11 0 16 11 -3 8 15 12 3 -8 6 18 15 18 10 -0 10 14 14 18 10 6 12 13 8 2 8 13 2 4 10 -3 -2 9 8 14 23 11 -2 12 28 4 -22 4 35 19 2 9 13 13 11 3 3 14 22 24 19 11 11 10 6 9 12 10 9 8 9 8 7 7
23 29 12 10 15 11 17 18 6 2 2 9 18 14 9 11 13 15 3 -0 20 22 12 12 9 8 -1 -13 11 29 14 10 7 -0 9 14 13 15 6 4 13 21 22 9 4 13 8 5 10 -0 -4 6 9 9 17 20 8 -1 18 32 7 -8 19 28 4 -0 10 9 12 15 3 -5 3 14 17 16 17 18 13 10 9 9 7 6 6 6 5 4
26 21 10 11 14 12 14 8 1 8 11 11 22 20 13 17 17 8 -3 2 20 23 20 19 9 4 -1 -10 8 25 11 1 3 4 8 9 14 16 12 12 10 10 21 18 3 5 8 6 9 3 -3 6 14 13 16 22 18 5 4 24 23 -4 0 24 14 0 6 5 6 17 15 4 1 1 2 4 6 9 12 13 12 10 9 8 7 7 8 9
20 16 12 10 8 6 7 6 6 14 14 12 21 21 14 20 21 4 -4 11 25 22 21 21 9 4 8 1 2 15 14 0 -2 6 9 6 8 13 14 16 12 7 12 16 10 6 6 8 12 7 -1 5 12 10 13 18 17 13 2 6 21 9 -2 15 14 -3 3 8 4 10 14 12 13 14 14 12 8 5 7 10 12 10 11 12 12 12 13 14
18 15 10 5 6 8 11 15 16 16 15 11 13 19 20 23 16 -4 -3 17 21 16 20 20 9 4 8 7 3 7 12 6 0 3 8 7 8 17 20 11 10 15 13 11 12 10 8 9 12 12 4 3 11 9 9 16 17 18 12 7 16 12 4 19 19 -2 1 11 8 11 15 9 6 10 15 18 17 16 15 15 15 13 12 12 13 13 13 14
13 9 7 7 13 16 15 17 17 16 17 13 12 16 13 10 4 -5 2 16 15 14 19 17 13 7 1 6 12 9 8 10 7 1 2 5 3 9 19 13 10 16 14 12 13 8 8 10 8 14 8 -1 6 10 6 9 9 11 17 15 12 6 5 19 18 2 3 7 6 17 25 18 8 6 7 9 11 12 13 14 15 15 13 12 13 13 13 13
7 7 12 14 13 14 16 17 17 14 13 13 14 11 4 0 4 6 14 19 16 19 20 13 13 12 4 3 5 0 1 15 21 5 -2 13 16 7 9 9 8 12 10 11 17 11 8 11 9 10 7 1 6 10 9 9 4 4 14 18 14 10 7 10 10 4 0 -3 -1 10 19 18 15 11 8 9 10 10 11 13 15 17 16 15 15 15 13 11
10 14 17 12 6 10 17 17 15 14 14 14 11 8 12 16 18 22 28 26 17 18 22 16 13 15 13 7 1 -5 -5 12 26 6 -11 11 26 15 14 13 7 10 9 7 17 15 7 13 16 6 1 3 6 8 11 11 4 4 14 20 19 17 12 5 3 3 1 -5 -7 -3 3 9 12 11 10 11 10 10 12 12 13 14 15 15 14 13 11 10
16 16 12 10 12 17 18 14 12 13 12 8 5 14 27 25 19 25 31 26 18 19 21 16 11 11 13 14 12 6 -1 5 18 5 -7 14 23 11 17 24 12 9 9 8 14 8 -1 14 20 5 0 5 4 8 15 12 6 5 10 14 16 16 14 8 3 4 5 2 -0 1 3 6 7 6 7 9 8 9 10 10 10 10 10 10 10 9 8 8
Height
5721 5721 5722 5723 5724 5725 5727 5728 5730 5732 5733 5735 5737 5739 5742 5744 5746 5749 5751 5754 5756 5759 5761 5763 5765 5767 5769 5771 5773 5774 5776 5777 5779 5780 5782 5782 5783 5786 5787 5789 5792 5794 5796 5799 5801 5802 5804 5806 5808 5810 5811 5813 5814 5815 5817 5818 5820 5822 5823 5826 5828 5830 5832 5831 5832 5835 5831 5829 5836 5840 5840 5843 5844 5846 5846 5847 5848 5848 5850 5850 5850 5850 5851 5851 5849 5850 5852 5853
5715 5716 5717 5718 5718 5720 5721 5723 5724 5726 5728 5729 5732 5734 5736 5738 5740 5743 5746 5748 5751 5754 5756 5758 5761 5763 5765 5767 5769 5771 5773 5774 5776 5778 5779 5779 5780 5783 5786 5787 5789 5791 5793 5795 5797 5799 5801 5803 5805 5808 5809 5810 5812 5813 5814 5816 5817 5819 5821 5823 5825 5828 5828 5825 5826 5828 5827 5830 5837 5838 5839 5841 5842 5844 5845 5846 5847 5847 5849 5848 5848 5848 5848 5849 5847 5848 5850 5851
5710 5711 5711 5712 5713 5714 5716 5717 5718 5720 5722 5723 5726 5728 5730 5732 5735 5737 5740 5743 5746 5748 5751 5754 5756 5758 5761 5763 5765 5767 5769 5771 5773 5774 5776 5776 5777 5781 5783 5785 5787 5788 5790 5792 5794 5796 5798 5801 5803 5805 5806 5808 5809 5810 5812 5813 5815 5816 5818 5821 5823 5823 5821 5820 5824 5826 5828 5832 5836 5837 5838 5840 5841 5843 5844 5845 5845 5847 5847 5847 5847 5846 5846 5847 5846 5847 5848 5850
5705 5705 5706 5707 5708 5709 5710 5712 5713 5714 5716 5718 5720 5722 5724 5727 5729 5732 5734 5737 5740 5743 5746 5749 5751 5754 5756 5759 5761 5763 5765 5767 5768 5770 5773 5773 5774 5778 5781 5783 5784 5785 5787 5789 5791 5794 5796 5798 5800 5802 5804 5805 5806 5808 5809 5811 5812 5813 5816 5818 5818 5817 5818 5820 5823 5825 5827 5831 5834 5835 5837 5837 5839 5842 5843 5843 5845 5846 5846 5845 5846 5845 5845 5845 5844 5845 5847 5848
5699 5700 5701 5701 5702 5703 5705 5706 5708 5709 5711 5712 5714 5717 5719 5721 5723 5726 5729 5732 5735 5738 5741 5744 5746 5749 5752 5754 5756 5759 5761 5762 5763 5767 5770 5770 5770 5775 5779 5780 5781 5783 5784 5786 5788 5791 5793 5796 5798 5799 5801 5802 5804 5806 5807 5808 5809 5811 5813 5814 5813 5815 5817 5818 5820 5822 5826 5829 5831 5832 5833 5834 5837 5839 5841 5842 5843 5843 5843 5843 5844 5843 5842 5842 5843 5843 5845 5847
5694 5694 5695 5696 5697 5698 5699 5700 5702 5704 5705 5707 5709 5711 5713 5716 5718 5720 5723 5726 5730 5733 5735 5738 5741 5744 5747 5749 5752 5754 5756 5756 5759 5765 5766 5766 5768 5772 5776 5778 5779 5780 5782 5784 5786 5788 5790 5793 5795 5797 5799 5800 5802 5803 5804 5805 5807 5809 5810 5810 5811 5815 5815 5815 5818 5822 5824 5826 5827 5829 5830 5833 5836 5837 5839 5840 5839 5839 5840 5841 5842 5841 5840 5841 5841 5842 5843 5845
5688 5689 5690 5690 5691 5692 5694 5695 5696 5698 5700 5701 5703 5705 5707 5710 5712 5715 5718 5721 5724 5727 5730 5733 5735 5739 5742 5744 5747 5749 5752 5752 5756 5762 5762 5764 5765 5768 5772 5775 5776 5777 5779 5781 5783 5785 5787 5790 5792 5794 5796 5797 5799 5800 5801 5803 5805 5806 5807 5808 5810 5812 5811 5812 5817 5820 5822 5824 5825 5827 5830 5833 5834 5835 5837 5837 5836 5837 5839 5839 5840 5840 5840 5839 5840 5841 5842 5843
5682 5683 5684 5685 5686 5687 5688 5689 5690 5692 5694 5696 5697 5699 5702 5704 5707 5709 5712 5715 5719 5721 5724 5727 5730 5733 5736 5739 5742 5744 5748 5748 5751 5757 5759 5760 5762 5764 5769 5771 5773 5774 5776 5778 5780 5782 5784 5787 5789 5791 5794 5795 5797 5798 5799 5801 5803 5803 5805 5806 5808 5808 5809 5812 5815 5817 5820 5822 5824 5826 5829 5830 5831 5832 5834 5834 5834 5836 5837 5837 5838 5839 5838 5838 5838 5839 5840 5841
5675 5676 5677 5678 5679 5681 5682 5683 5685 5686 5688 5690 5692 5694 5696 5698 5701 5704 5707 5710 5713 5716 5719 5721 5724 5728 5731 5734 5736 5739 5743 5743 5747 5754 5755 5757 5759 5761 5765 5768 5771 5772 5773 5775 5777 5779 5781 5784 5787 5789 5791 5792 5794 5795 5797 5799 5800 5801 5803 5804 5805 5806 5807 5810 5812 5815 5818 5820 5822 5824 5825 5827 5828 5831 5832 5831 5832 5833 5834 5836 5837 5837 5837 5836 5836 5837 5838 5839
5669 5670 5670 5671 5673 5674 5676 5677 5679 5680 5682 5685 5686 5688 5690 5693 5695 5698 5701 5704 5707 5710 5713 5716 5719 5722 5725 5728 5731 5734 5737 5739 5744 5749 5751 5753 5755 5758 5761 5765 5767 5769 5771 5772 5774 5777 5779 5782 5784 5785 5787 5788 5791 5792 5795 5796 5797 5799 5801 5802 5803 5804 5805 5807 5810 5812 5815 5817 5820 5822 5823 5824 5827 5830 5830 5829 5830 5832 5833 5834 5836 5836 5835 5835 5835 5835 5836 5837
5663 5663 5664 5665 5666 5667 5669 5671 5673 5674 5676 5678 5680 5683 5685 5687 5690 5692 5696 5698 5702 5705 5708 5711 5713 5716 5719 5722 5726 5728 5733 5736 5739 5743 5747 5750 5752 5754 5757 5761 5764 5766 5768 5769 5772 5774 5776 5778 5779 5782 5784 5786 5788 5790 5792 5794 5795 5798 5799 5800 5801 5802 5803 5806 5808 5810 5813 5816 5818 5820 5821 5822 5825 5827 5825 5825 5828 5829 5831 5832 5834 5835 5833 5832 5832 5833 5834 5835
5656 5656 5657 5658 5659 5660 5662 5664 5666 5668 5670 5672 5674 5677 5679 5681 5684 5687 5690 5693 5696 5699 5702 5705 5707 5711 5714 5717 5721 5724 5729 5732 5734 5739 5743 5745 5748 5751 5754 5757 5760 5763 5764 5766 5769 5771 5772 5774 5776 5780 5782 5783 5786 5788 5789 5791 5793 5795 5797 5798 5799 5800 5802 5804 5807 5809 5812 5813 5815 5818 5818 5820 5823 5823 5822 5824 5827 5827 5829 5831 5832 5832 5830 5830 5830 5831 5832 5833
5648 5649 5650 5651 5652 5654 5655 5657 5659 5661 5664 5666 5668 5670 5673 5676 5678 5681 5684 5687 5691 5694 5697 5699 5702 5705 5708 5713 5717 5719 5724 5727 5730 5735 5738 5741 5744 5747 5750 5753 5756 5759 5761 5763 5765 5767 5769 5772 5775 5778 5778 5781 5785 5785 5787 5790 5791 5793 5795 5796 5797 5798 5799 5802 5805 5807 5809 5809 5812 5816 5817 5819 5821 5819 5821 5824 5825 5826 5828 5829 5830 5830 5828 5828 5829 5830 5831 5831
5641 5642 5643 5644 5645 5646 5648 5650 5652 5655 5657 5659 5662 5664 5667 5670 5672 5675 5678 5681 5685 5687 5691 5694 5697 5699 5703 5708 5712 5714 5718 5723 5726 5730 5733 5737 5740 5743 5746 5749 5752 5755 5757 5760 5762 5764 5767 5770 5773 5774 5775 5780 5781 5780 5785 5788 5789 5792 5793 5794 5795 5796 5798 5800 5802 5804 5806 5807 5811 5815 5818 5819 5816 5816 5820 5821 5823 5825 5825 5827 5828 5828 5826 5826 5827 5828 5829 5829
5633 5634 5636 5637 5638 5639 5641 5643 5645 5648 5650 5653 5655 5658 5660 5663 5666 5670 5673 5676 5678 5681 5685 5688 5691 5694 5698 5703 5706 5709 5714 5719 5722 5725 5728 5733 5736 5739 5742 5745 5748 5751 5754 5756 5758 5761 5765 5767 5770 5770 5774 5778 5776 5779 5785 5786 5787 5789 5791 5792 5793 5795 5796 5797 5799 5802 5804 5806 5809 5813 5818 5817 5811 5813 5819 5818 5820 5822 5823 5825 5826 5825 5824 5824 5825 5825 5826 5827
5625 5627 5628 5630 5631 5632 5634 5636 5638 5641 5643 5646 5648 5651 5654 5657 5660 5663 5667 5670 5673 5676 5679 5682 5686 5689 5693 5697 5701 5705 5710 5714 5717 5720 5724 5728 5732 5734 5738 5741 5744 5747 5750 5752 5755 5759 5762 5764 5766 5768 5771 5773 5774 5779 5782 5782 5785 5787 5789 5791 5792 5795 5795 5794 5796 5800 5802 5804 5807 5812 5815 5812 5808 5812 5815 5815 5817 5819 5821 5823 5824 5824 5822 5821 5822 5823 5823 5825
5617 5619 5620 5622 5624 5626 5628 5629 5631 5634 5636 5639 5641 5644 5648 5651 5654 5657 5660 5664 5667 5670 5674 5677 5681 5685 5688 5692 5698 5701 5705 5710 5712 5715 5719 5724 5727 5730 5733 5737 5740 5743 5746 5748 5752 5755 5758 5760 5762 5765 5767 5769 5772 5776 5778 5779 5782 5784 5787 5789 5790 5794 5794 5791 5793 5798 5800 5802 5805 5810 5811 5808 5807 5810 5811 5813 5815 5816 5818 5820 5821 5822 5820 5819 5820 5821 5821 5822
5609 5611 5612 5615 5617 5619 5621 5623 5625 5627 5629 5632 5635 5638 5641 5644 5647 5650 5654 5658 5661 5665 5668 5672 5676 5680 5682 5687 5693 5697 5700 5704 5707 5710 5715 5719 5722 5726 5730 5733 5736 5739 5742 5745 5748 5751 5754 5756 5758 5761 5763 5766 5769 5772 5775 5777 5779 5782 5785 5787 5788 5792 5792 5789 5791 5796 5799 5800 5803 5807 5807 5805 5805 5808 5809 5810 5812 5813 5815 5817 5819 5820 5819 5817 5819 5820 5821 5822
5601 5603 5605 5607 5610 5612 5615 5617 5619 5621 5623 5625 5628 5631 5635 5638 5641 5644 5648 5652 5656 5660 5663 5667 5671 5675 5677 5683 5688 5690 5694 5699 5703 5706 5710 5714 5718 5722 5725 5728 5731 5735 5738 5741 5744 5747 5750 5751 5753 5756 5759 5763 5766 5769 5772 5775 5777 5780 5783 5786 5787 5789 5790 5789 5789 5793 5797 5798 5800 5804 5804 5802 5803 5806 5807 5808 5809 5811 5813 5814 5815 5816 5817 5817 5817 5818 5819 5820
5593 5594 5597 5600 5603 5605 5608 5610 5613 5615 5617 5619 5622 5625 5628 5631 5634 5637 5641 5645 5650 5655 5658 5661 5666 5670 5673 5677 5682 5686 5690 5695 5699 5701 5705 5709 5713 5717 5721 5724 5727 5730 5733 5737 5740 5742 5746 5747 5750 5754 5757 5760 5763 5766 5770 5773 5775 5776 5779 5783 5784 5787 5790 5789 5787 5789 5793 5796 5797 5801 5801 5800 5801 5803 5804 5805 5806 5807 5809 5810 5812 5814 5815 5815 5815 5815 5816 5818
5584 5586 5589 5592 5595 5598 5601 5604 5606 5609 5611 5613 5616 5618 5621 5624 5627 5630 5636 5640 5644 5648 5651 5654 5661 5665 5667 5671 5677 5682 5686 5690 5693 5696 5700 5705 5709 5713 5716 5720 5723 5726 5729 5733 5735 5738 5741 5743 5747 5753 5755 5758 5760 5763 5767 5769 5770 5772 5776 5780 5782 5785 5788 5787 5784 5786 5791 5795 5797 5799 5798 5796 5799 5800 5800 5802 5802 5803 5805 5808 5810 5811 5812 5813 5813 5813 5814 5817
5576 5579 5581 5585 5588 5591 5594 5597 5600 5602 5605 5607 5610 5612 5614 5618 5622 5626 5630 5634 5637 5642 5645 5649 5656 5660 5662 5667 5674 5678 5681 5685 5689 5692 5696 5700 5704 5708 5712 5716 5719 5722 5726 5729 5731 5734 5737 5740 5745 5749 5751 5754 5756 5760 5764 5765 5767 5771 5774 5779 5780 5782 5785 5783 5781 5784 5789 5793 5796 5795 5793 5793 5796 5796 5797 5798 5799 5800 5802 5805 5806 5808 5809 5811 5812 5813 5814 5815
5568 5571 5574 5577 5581 5584 5587 5590 5593 5596 5599 5601 5604 5606 5609 5613 5616 5620 5624 5627 5631 5636 5640 5644 5650 5655 5658 5663 5669 5674 5677 5681 5685 5689 5693 5697 5701 5704 5708 5712 5715 5718 5722 5725 5727 5731 5734 5739 5743 5746 5748 5750 5753 5757 5760 5761 5765 5769 5773 5777 5777 5780 5784 5780 5777 5781 5786 5789 5791 5790 5790 5792 5793 5793 5794 5795 5796 5798 5800 5802 5804 5806 5807 5808 5810 5811 5813 5813
5560 5563 5567 5570 5574 5577 5580 5583 5587 5590 5593 5595 5598 5601 5603 5607 5611 5614 5618 5622 5626 5630 5634 5639 5644 5648 5654 5659 5663 5668 5672 5676 5680 5684 5689 5693 5697 5701 5704 5708 5712 5715 5718 5721 5724 5728 5733 5737 5740 5742 5745 5747 5750 5754 5756 5758 5763 5766 5769 5773 5775 5779 5782 5776 5774 5779 5783 5785 5786 5787 5788 5789 5790 5791 5791 5791 5792 5795 5797 5800 5802 5803 5805 5806 5807 5809 5810 5811
5551 5555 5559 5563 5567 5570 5573 5577 5580 5583 5587 5589 5592 5595 5598 5601 5605 5609 5613 5616 5620 5625 5629 5633 5637 5643 5649 5652 5657 5663 5667 5672 5676 5679 5684 5688 5692 5697 5700 5704 5708 5711 5715 5718 5721 5725 5730 5733 5735 5738 5741 5743 5747 5750 5753 5757 5760 5763 5765 5769 5772 5777 5778 5774 5772 5776 5779 5780 5782 5785 5786 5787 5788 5788 5788 5788 5790 5792 5795 5798 5799 5801 5802 5803 5805 5807 5808 5809
5543 5548 5552 5556 5560 5563 5566 5570 5574 5577 5580 5583 5586 5590 5593 5596 5600 5605 5608 5612 5615 5618 5622 5627 5633 5639 5644 5647 5653 5659 5662 5667 5672 5675 5680 5684 5688 5692 5696 5700 5704 5708 5712 5714 5717 5722 5726 5727 5730 5733 5736 5740 5744 5747 5751 5754 5757 5760 5763 5766 5769 5773 5774 5772 5770 5771 5776 5779 5779 5782 5785 5786 5785 5785 5786 5786 5787 5789 5792 5795 5797 5798 5799 5801 5803 5804 5806 5807
5535 5540 5545 5549 5553 5556 5560 5564 5568 5571 5574 5577 5581 5585 5588 5591 5595 5601 5604 5607 5610 5613 5617 5623 5627 5633 5639 5642 5649 5654 5658 5664 5667 5670 5676 5681 5684 5688 5692 5696 5701 5705 5707 5710 5714 5718 5721 5723 5725 5728 5732 5737 5741 5744 5747 5751 5755 5758 5760 5763 5766 5768 5770 5769 5766 5769 5775 5777 5777 5779 5783 5784 5782 5782 5783 5783 5784 5786 5788 5791 5794 5795 5797 5798 5800 5802 5803 5805
5528 5533 5537 5542 5546 5549 5554 5558 5561 5565 5568 5572 5577 5580 5583 5587 5592 5596 5600 5602 5606 5609 5612 5618 5623 5629 5632 5636 5643 5650 5655 5659 5662 5667 5673 5677 5681 5684 5688 5692 5697 5701 5703 5706 5711 5714 5718 5721 5721 5725 5730 5734 5737 5740 5744 5748 5752 5755 5756 5759 5761 5763 5766 5766 5765 5770 5773 5775 5775 5776 5779 5782 5779 5777 5778 5780 5782 5783 5785 5787 5790 5792 5794 5796 5797 5799 5801 5802
5522 5526 5531 5535 5539 5544 5548 5552 5556 5560 5563 5568 5572 5575 5579 5583 5587 5592 5595 5599 5603 5605 5607 5612 5619 5623 5627 5632 5639 5644 5649 5653 5658 5664 5669 5673 5677 5681 5685 5690 5694 5697 5699 5703 5708 5711 5716 5718 5717 5722 5729 5731 5735 5738 5741 5745 5749 5752 5754 5755 5757 5760 5762 5763 5765 5769 5771 5771 5772 5772 5774 5778 5777 5774 5775 5778 5778 5780 5782 5784 5786 5789 5791 5793 5795 5797 5798 5800
5516 5520 5525 5529 5533 5538 5543 5547 5551 5555 5559 5563 5567 5571 5574 5578 5583 5586 5590 5596 5601 5601 5603 5608 5613 5617 5622 5628 5634 5639 5643 5647 5652 5658 5664 5669 5673 5677 5682 5686 5689 5694 5697 5699 5704 5708 5711 5712 5713 5720 5726 5728 5732 5735 5737 5742 5746 5750 5752 5751 5753 5757 5758 5760 5763 5767 5769 5767 5767 5769 5771 5775 5775 5772 5774 5775 5774 5776 5779 5780 5783 5786 5788 5790 5793 5794 5796 5798
5512 5516 5520 5524 5529 5534 5538 5542 5546 5551 5555 5559 5563 5567 5571 5575 5579 5582 5587 5594 5598 5598 5600 5605 5609 5614 5619 5625 5630 5635 5638 5642 5647 5653 5658 5663 5667 5672 5677 5680 5683 5690 5693 5693 5700 5704 5704 5706 5710 5716 5721 5724 5727 5731 5734 5739 5743 5745 5746 5747 5750 5754 5755 5757 5759 5761 5763 5764 5765 5766 5768 5771 5772 5770 5770 5770 5769 5773 5777 5777 5780 5783 5785 5788 5790 5792 5794 5795
5508 5512 5515 5520 5525 5530 5534 5538 5543 5547 5551 5555 5559 5563 5568 5572 5576 5579 5585 5591 5594 5595 5599 5603 5606 5611 5617 5621 5626 5630 5635 5640 5643 5648 5653 5657 5661 5666 5671 5676 5679 5683 5686 5689 5696 5700 5699 5702 5707 5712 5717 5719 5723 5727 5730 5734 5738 5738 5740 5744 5747 5750 5751 5753 5755 5755 5758 5762 5764 5764 5767 5769 5767 5765 5765 5765 5768 5773 5776 5776 5778 5780 5783 5786 5788 5790 5792 5793
5505 5509 5512 5517 5522 5526 5531 5535 5539 5544 5548 5552 5556 5560 5565 5569 5573 5578 5584 5589 5592 5595 5598 5601 5605 5609 5613 5617 5622 5626 5632 5637 5639 5643 5649 5654 5658 5663 5668 5673 5676 5679 5684 5687 5691 5696 5697 5699 5703 5708 5712 5714 5719 5723 5724 5728 5732 5732 5735 5740 5743 5746 5747 5748 5750 5752 5755 5759 5761 5763 5767 5766 5762 5761 5762 5765 5769 5772 5774 5775 5776 5778 5781 5783 5786 5787 5789 5791
5502 5506 5510 5515 5519 5523 5527 5532 5536 5541 5545 5550 5554 5559 5563 5567 5572 5578 5583 5587 5591 5594 5597 5600 5603 5606 5610 5614 5619 5623 5629 5633 5635 5640 5646 5650 5654 5659 5664 5669 5672 5677 5683 5686 5688 5693 5695 5694 5699 5705 5707 5710 5716 5719 5721 5726 5728 5729 5734 5739 5740 5743 5744 5745 5748 5751 5753 5756 5758 5761 5764 5761 5758 5757 5759 5763 5767 5769 5771 5773 5774 5776 5779 5781 5783 5785 5786 5788
5501 5505 5509 5513 5517 5521 5525 5530 5535 5539 5543 5548 5553 5558 5563 5567 5574 5580 5583 5585 5589 5593 5596 5598 5601 5604 5607 5612 5616 5621 5626 5630 5632 5637 5642 5646 5650 5655 5660 5665 5668 5673 5679 5682 5685 5690 5692 5693 5697 5702 5704 5708 5713 5715 5719 5723 5724 5727 5732 5735 5737 5741 5743 5744 5747 5750 5752 5755 5755 5756 5758 5756 5754 5754 5756 5759 5763 5766 5768 5769 5771 5774 5776 5778 5781 5782 5784 5786
5501 5505 5509 5512 5516 5520 5524 5529 5533 5537 5542 5547 5551 5557 5563 5569 5574 5578 5580 5583 5586 5590 5593 5596 5599 5602 5606 5610 5613 5618 5624 5628 5630 5634 5639 5643 5648 5652 5657 5662 5666 5669 5675 5679 5683 5686 5689 5693 5695 5697 5700 5704 5708 5712 5716 5718 5720 5724 5728 5730 5734 5739 5742 5743 5745 5747 5750 5752 5752 5751 5752 5751 5752 5752 5752 5755 5760 5763 5765 5766 5768 5771 5773 5776 5778 5781 5783 5784
5502 5506 5509 5513 5516 5520 5524 5528 5532 5536 5541 5546 5551 5557 5563 5568 5572 5575 5578 5582 5586 5588 5592 5595 5598 5601 5605 5609 5612 5615 5621 5625 5628 5632 5637 5640 5645 5649 5653 5659 5663 5667 5672 5678 5682 5684 5688 5693 5693 5693 5698 5702 5705 5711 5714 5715 5718 5721 5724 5728 5732 5737 5740 5741 5743 5744 5746 5749 5748 5747 5747 5748 5749 5749 5750 5754 5757 5760 5762 5763 5766 5768 5771 5774 5776 5778 5780 5781
5505 5508 5511 5513 5516 5520 5523 5527 5531 5536 5541 5545 5551 5556 5561 5566 5570 5573 5577 5580 5583 5587 5592 5595 5597 5601 5605 5609 5611 5614 5619 5623 5626 5631 5635 5638 5643 5647 5651 5656 5660 5664 5670 5676 5679 5682 5686 5692 5692 5692 5696 5700 5704 5708 5710 5711 5716 5719 5723 5728 5730 5734 5736 5737 5738 5739 5741 5743 5744 5745 5745 5745 5747 5747 5748 5753 5756 5758 5760 5762 5764 5767 5769 5772 5774 5776 5778 5779
5508 5511 5514 5516 5518 5520 5523 5527 5531 5535 5540 5546 5551 5556 5560 5565 5568 5571 5574 5577 5581 5586 5589 5592 5596 5600 5604 5609 5612 5614 5617 5621 5625 5630 5635 5638 5642 5645 5649 5654 5658 5661 5667 5673 5677 5679 5684 5688 5689 5689 5692 5697 5700 5703 5705 5708 5713 5718 5721 5724 5727 5730 5732 5733 5735 5736 5738 5740 5742 5744 5743 5743 5744 5744 5746 5750 5753 5755 5758 5759 5762 5765 5767 5770 5772 5773 5775 5776
5511 5514 5517 5518 5520 5522 5525 5528 5532 5536 5542 5546 5551 5556 5560 5564 5568 5570 5572 5575 5579 5584 5587 5591 5594 5599 5604 5609 5612 5614 5617 5621 5626 5631 5634 5638 5641 5644 5648 5653 5656 5659 5665 5671 5675 5678 5681 5685 5687 5687 5690 5692 5695 5698 5702 5707 5711 5713 5714 5718 5722 5725 5728 5731 5733 5734 5736 5738 5740 5741 5741 5740 5740 5740 5743 5747 5748 5751 5754 5757 5760 5762 5765 5767 5769 5771 5773 5774
5514 5517 5520 5521 5523 5525 5528 5531 5535 5539 5544 5547 5551 5555 5559 5562 5566 5569 5571 5575 5579 5583 5586 5589 5592 5596 5601 5606 5610 5615 5617 5620 5625 5631 5634 5636 5639 5642 5646 5650 5653 5657 5662 5668 5672 5675 5679 5683 5684 5685 5687 5689 5692 5697 5703 5707 5709 5710 5712 5717 5720 5722 5725 5728 5729 5731 5734 5735 5738 5739 5737 5737 5738 5739 5741 5743 5745 5748 5752 5755 5757 5760 5762 5765 5766 5768 5770 5771
5516 5519 5522 5524 5526 5529 5531 5535 5538 5541 5545 5548 5551 5555 5558 5561 5564 5568 5571 5575 5578 5581 5584 5588 5591 5595 5599 5603 5608 5614 5618 5621 5625 5629 5632 5635 5637 5641 5644 5648 5652 5655 5659 5665 5669 5672 5676 5680 5682 5684 5686 5689 5693 5697 5701 5704 5706 5708 5711 5716 5718 5719 5722 5724 5726 5729 5731 5732 5736 5737 5735 5733 5735 5737 5738 5741 5744 5747 5750 5752 5755 5757 5760 5762 5763 5765 5766 5768
5519 5522 5524 5527 5529 5531 5534 5537 5540 5544 5547 5550 5552 5555 5558 5561 5565 5568 5571 5574 5577 5581 5584 5587 5592 5595 5599 5603 5607 5612 5618 5621 5624 5628 5631 5634 5636 5640 5644 5647 5651 5654 5657 5662 5666 5669 5673 5676 5680 5683 5686 5689 5692 5695 5697 5700 5702 5705 5708 5712 5715 5716 5719 5722 5725 5728 5729 5730 5734 5734 5731 5729 5732 5734 5736 5739 5743 5745 5747 5749 5752 5754 5757 5758 5760 5762 5763 5764
5523 5525 5527 5529 5531 5534 5536 5539 5543 5547 5549 5551 5553 5556 5558 5562 5565 5567 5570 5574 5577 5581 5584 5587 5591 5594 5598 5601 5605 5610 5616 5620 5623 5626 5630 5633 5636 5639 5642 5645 5649 5653 5656 5660 5664 5667 5670 5674 5678 5681 5683 5685 5687 5690 5692 5695 5699 5702 5704 5708 5711 5713 5716 5719 5723 5726 5726 5727 5730 5730 5727 5727 5730 5732 5734 5737 5739 5742 5744 5746 5749 5751 5753 5755 5757 5758 5760 5761
5526 5528 5530 5532 5534 5536 5539 5542 5545 5549 5551 5553 5555 5557 5559 5562 5565 5567 5570 5573 5577 5580 5583 5586 5589 5592 5596 5600 5603 5608 5613 5619 5623 5626 5628 5631 5633 5637 5640 5643 5647 5651 5655 5659 5663 5666 5669 5672 5675 5678 5680 5681 5683 5685 5688 5691 5695 5698 5701 5704 5708 5711 5714 5717 5720 5722 5721 5724 5727 5726 5725 5726 5728 5730 5732 5734 5737 5739 5741 5744 5746 5748 5750 5752 5754 5755 5757 5758
5529 5532 5533 5535 5537 5539 5541 5544 5547 5551 5553 5554 5556 5558 5560 5563 5566 5569 5571 5574 5577 5579 5582 5586 5589 5593 5596 5600 5603 5607 5612 5617 5621 5624 5626 5628 5631 5635 5639 5642 5646 5650 5653 5656 5661 5664 5667 5669 5671 5674 5677 5680 5682 5686 5689 5690 5693 5696 5698 5701 5704 5708 5713 5715 5717 5719 5719 5721 5723 5722 5722 5723 5725 5727 5730 5732 5734 5737 5739 5741 5744 5745 5747 5749 5750 5751 5753 5754
5532 5535 5536 5538 5541 5542 5544 5546 5548 5552 5554 5555 5557 5560 5562 5564 5567 5570 5572 5574 5576 5579 5582 5586 5590 5594 5598 5601 5605 5608 5611 5615 5619 5622 5625 5628 5631 5634 5637 5641 5644 5646 5649 5654 5658 5662 5664 5666 5669 5672 5675 5677 5680 5684 5686 5689 5692 5695 5697 5699 5702 5705 5709 5711 5713 5715 5716 5717 5717 5717 5719 5721 5722 5725 5727 5729 5732 5734 5736 5738 5740 5742 5743 5745 5746 5747 5749 5749
5535 5537 5539 5541 5544 5546 5548 5548 5550 5553 5555 5556 5558 5561 5563 5566 5568 5571 5573 5575 5577 5579 5583 5586 5590 5595 5598 5601 5605 5609 5612 5614 5618 5622 5625 5627 5630 5633 5636 5640 5642 5644 5648 5652 5656 5660 5662 5665 5668 5671 5673 5676 5678 5681 5684 5687 5690 5693 5695 5697 5700 5702 5704 5706 5708 5710 5711 5712 5713 5714 5717 5719 5721 5723 5725 5727 5729 5731 5733 5735 5736 5738 5739 5741 5742 5743 5744 5745
5538 5541 5543 5544 5546 5549 5551 5552 5553 5555 5557 5558 5560 5563 5565 5567 5569 5571 5573 5575 5577 5579 5582 5586 5590 5595 5598 5601 5604 5608 5612 5615 5619 5621 5624 5626 5629 5631 5635 5638 5641 5644 5648 5651 5654 5657 5660 5662 5666 5669 5671 5674 5677 5679 5682 5684 5686 5689 5692 5694 5697 5699 5701 5702 5704 5706 5708 5709 5711 5712 5714 5716 5718 5721 5723 5725 5727 5728 5730 5732 5733 5735 5736 5737 5738 5739 5740 5741
5542 5544 5545 5547 5549 5551 5554 5556 5557 5558 5560 5562 5564 5566 5567 5569 5570 5571 5573 5575 5577 5579 5582 5587 5590 5593 5597 5601 5605 5608 5612 5615 5618 5621 5623 5625 5627 5630 5634 5637 5640 5644 5647 5649 5652 5654 5657 5660 5664 5667 5669 5672 5675 5678 5679 5681 5684 5687 5689 5691 5693 5695 5697 5698 5701 5703 5705 5707 5709 5711 5713 5715 5717 5719 5721 5723 5725 5726 5728 5729 5730 5732 5733 5734 5735 5736 5737 5738
5545 5546 5548 5549 5551 5554 5557 5559 5560 5562 5563 5565 5566 5568 5569 5570 5570 5571 5572 5574 5576 5579 5583 5587 5590 5593 5597 5601 5604 5607 5611 5614 5617 5620 5623 5625 5627 5630 5633 5637 5640 5642 5645 5647 5650 5653 5656 5659 5662 5666 5668 5670 5673 5675 5677 5679 5683 5685 5687 5689 5691 5693 5695 5697 5699 5701 5704 5706 5708 5709 5712 5714 5716 5718 5719 5721 5723 5724 5725 5727 5728 5729 5731 5732 5733 5734 5734 5735
5549 5550 5551 5552 5554 5557 5560 5562 5563 5564 5565 5566 5568 5569 5569 5569 5570 5571 5573 5575 5577 5580 5583 5586 5590 5594 5597 5600 5603 5607 5611 5614 5617 5620 5622 5624 5626 5630 5633 5636 5639 5642 5644 5647 5650 5653 5655 5658 5661 5664 5666 5667 5670 5673 5676 5679 5681 5683 5685 5688 5690 5692 5694 5696 5698 5700 5702 5704 5706 5709 5711 5713 5715 5716 5718 5719 5720 5722 5723 5724 5725 5727 5728 5729 5730 5731 5732 5732